Weather in Chishmy

Russia / Republic of Bashkortostan     54°35′21″N   55°22′48″E
temp.,
°C
wind,
m/s
gust,
m/s
humid.,
%
clouds,
%
prec.,
mm/h
press.,
hPa
HPBL,
m
10 may, mon
mon1023:00+16e11454 0.0 101711
02:00+15s11539 0.0 101711
05:00+13e22614 0.0 101910
08:00+16ese22550 0.0 1020127
11:00+20ese33455 0.0 1020680
14:00+23e3336100 0.0 10201987
17:00+23e233437 0.0 10212136
20:00+21nnw114558 0.0 102111
11 may, tue
tue1123:00+17nne225113 0.0 102218
02:00+14se2360100 0.0 102335
05:00+13se2257100 0.0 102516
08:00+15se2555100 0.0 1026159
11:00+19se2341100 0.0 1027553
14:00+22ese2235100 0.0 10271410
17:00+22e2233100 0.0 10271743
20:00+19e2247100 0.0 102813
12 may, wed
wed1223:00+16nne114599 0.0 102811
02:00+14e115114 0.0 102811
05:00+12ne22552 0.0 102910
08:00+15e12530 0.0 1030129
11:00+20ene22420 0.0 1030602
14:00+23se12315 0.0 10291427
17:00+24ene11285 0.0 10281857
20:00+21ene00421 0.0 102811
13 may, thu
thu1323:00+18nnw11470 0.0 102811
02:00+16ne11621 0.0 102911
05:00+15nne11700 0.0 102911
08:00+18nne23645 0.0 1029157
11:00+22ne23501 0.0 1029660
14:00+25nne22415 0.0 10281665
17:00+25n22395 0.0 10271867
20:00+22n22515 0.0 102720
14 may, fri
fri1423:00+19nnw11535 0.0 102711
02:00+17nne11575 0.0 102711
05:00+16wsw11625 0.0 102811
08:00+19s00565 0.0 1028104
11:00+24ssw12464 0.0 1028671
14:00+27sw34371 0.0 10272065
17:00+27wsw34368 0.0 10262385
20:00+24w225128 0.0 102533